Location: Bottenau
(48.5138°N, 8.0462°E)
Time: 08:40:07
(UTC+00:00)

Cosmos 2074 Rocket - Pass Details

Date: 18 April 2021
Orbit: 967 x 986 km, 82.9° (Epoch: 05 May)

Event Time Altitude Azimuth Distance (km) Brightness Sun altitude
Rises 23:34:43 0° 350° (N) 3,686 8.1 -30.3°
Reaches altitude 10° 23:37:14 10° 351° (N) 2,737 7.2 -30.3°
Enters shadow 23:43:22 86° 349° (N) 989 3.9 -30.2°
